Location: St Paul
(33.4390°N, 83.7350°W)
Time: 23:49:40
(UTC-04:00)

SL-8 Rocket - Pass Details

Date: 06 October 2017
Orbit: 958 x 990 km, 82.9° (Epoch: 18 October)

Event Time Altitude Azimuth Distance (km) Brightness Sun altitude
Rises 20:23:34 0° 181° (S) 3,622 7.0 -15.7°
Reaches altitude 10° 20:26:02 10° 180° (S) 2,679 6.3 -16.2°
Maximum altitude 20:32:09 80° 95° (E) 977 3.9 -17.5°
Drops below altitude 10° 20:38:20 10° 9° (N) 2,703 6.3 -18.8°
Sets 20:40:51 0° 8° (N) 3,656 7.0 -19.3°
